| time (UTC) | temp F | wind direction | speed MPH | gust MPH | rain 1hr in | rain 24hr in | rain mn in | humidity % | barometer mb |
| 20260904043650 | 88 | 169 | 9.0 | 14.0 | 0.00 | 0.00 | 0.00 | 75 | 1012.0 |
| 20260904043135 | 88 | 198 | 7.0 | 13.0 | 0.00 | 0.00 | 0.00 | 75 | 1012.0 |
| 20260904042623 | 88 | 173 | 6.0 | 13.0 | 0.00 | 0.00 | 0.00 | 74 | 1012.0 |
| 20260904042121 | 88 | 189 | 6.0 | 13.0 | 0.00 | 0.00 | 0.00 | 74 | 1012.0 |
| 20260904041616 | 88 | 138 | 6.0 | 13.0 | 0.00 | 0.00 | 0.00 | 74 | 1012.0 |
| 20260904041120 | 88 | 219 | 7.0 | 13.0 | 0.00 | 0.00 | 0.00 | 74 | 1012.0 |
| 20260904040616 | 88 | 194 | 7.0 | 13.0 | 0.00 | 0.00 | 0.00 | 74 | 1012.1 |
| 20260904040106 | 87 | 140 | 6.0 | 12.0 | 0.00 | 0.00 | 0.00 | 74 | 1012.2 |
| 20260904035548 | 87 | 2 | 6.0 | 10.0 | 0.00 | 0.00 | 0.00 | 74 | 1012.2 |
| 20260904035052 | 87 | 176 | 6.0 | 10.0 | 0.00 | 0.00 | 0.00 | 75 | 1012.2 |
| 20260904034558 | 87 | 184 | 6.0 | 10.0 | 0.00 | 0.00 | 0.00 | 75 | 1012.2 |
| 20260904034040 | 87 | 195 | 6.0 | 10.0 | 0.00 | 0.00 | 0.00 | 75 | 1012.1 |
| 20260904032907 | 87 | 182 | 6.0 | 11.0 | 0.00 | 0.00 | 0.00 | 75 | 1012.1 |
| 20260904032350 | 87 | 169 | 5.0 | 11.0 | 0.00 | 0.00 | 0.00 | 76 | 1012.2 |
| 20260904031842 | 87 | 171 | 6.0 | 11.0 | 0.00 | 0.00 | 0.00 | 76 | 1012.3 |
| 20260904030050 | 87 | 182 | 6.0 | 12.0 | 0.00 | 0.00 | 0.00 | 77 | 1012.2 |
| 20260904025549 | 87 | 173 | 7.0 | 12.0 | 0.00 | 0.00 | 0.00 | 77 | 1012.2 |
| 20260904025035 | 87 | 90 | 7.0 | 12.0 | 0.00 | 0.00 | 0.00 | 76 | 1012.1 |
| 20260904024539 | 87 | 122 | 5.0 | 10.0 | 0.00 | 0.00 | 0.00 | 77 | 1012.1 |
| 20260904024032 | 87 | 201 | 6.0 | 10.0 | 0.00 | 0.00 | 0.00 | 77 | 1011.9 |
| 20260904022856 | 87 | 171 | 5.0 | 9.0 | 0.00 | 0.00 | 0.00 | 77 | 1012.0 |
| 20260904021725 | 87 | 190 | 5.0 | 10.0 | 0.00 | 0.00 | 0.00 | 76 | 1011.9 |
| 20260904021211 | 87 | 172 | 5.0 | 10.0 | 0.00 | 0.00 | 0.00 | 76 | 1011.9 |
| 20260904020652 | 87 | 163 | 5.0 | 10.0 | 0.00 | 0.00 | 0.00 | 76 | 1011.8 |
| 20260904020130 | 87 | 148 | 5.0 | 10.0 | 0.00 | 0.00 | 0.00 | 76 | 1011.8 |
| 20260904015620 | 87 | 142 | 6.0 | 12.0 | 0.00 | 0.00 | 0.00 | 76 | 1011.6 |
| 20260904015125 | 87 | 182 | 6.0 | 12.0 | 0.00 | 0.00 | 0.00 | 76 | 1011.6 |
| 20260904014011 | 87 | 126 | 6.0 | 12.0 | 0.00 | 0.00 | 0.00 | 75 | 1011.4 |
| 20260904013511 | 87 | 172 | 6.0 | 10.0 | 0.00 | 0.00 | 0.00 | 75 | 1011.2 |
| 20260904013006 | 88 | 206 | 5.0 | 9.0 | 0.00 | 0.00 | 0.00 | 75 | 1011.2 |
| 20260904011858 | 87 | 163 | 5.0 | 9.0 | 0.00 | 0.00 | 0.00 | 74 | 1011.4 |
| 20260904010733 | 87 | 154 | 4.0 | 7.0 | 0.00 | 0.00 | 0.00 | 73 | 1011.2 |
| 20260904010235 | 87 | 134 | 3.0 | 9.0 | 0.00 | 0.00 | 0.00 | 74 | 1011.2 |
| 20260904005100 | 87 | 194 | 4.0 | 9.0 | 0.00 | 0.00 | 0.00 | 74 | 1011.2 |
| 20260904003934 | 87 | 190 | 4.0 | 8.0 | 0.00 | 0.00 | 0.00 | 74 | 1011.3 |
| 20260904003427 | 88 | 184 | 4.0 | 8.0 | 0.00 | 0.00 | 0.00 | 74 | 1011.2 |
| 20260904002913 | 87 | 192 | 4.0 | 8.0 | 0.00 | 0.00 | 0.00 | 74 | 1011.3 |
| 20260904002413 | 87 | 175 | 4.0 | 8.0 | 0.00 | 0.00 | 0.00 | 73 | 1011.2 |
| 20260904001907 | 87 | 131 | 5.0 | 10.0 | 0.00 | 0.00 | 0.00 | 73 | 1011.2 |
| 20260904001405 | 87 | 152 | 5.0 | 10.0 | 0.00 | 0.00 | 0.00 | 74 | 1011.3 |
| 20260904000227 | 87 | 176 | 6.0 | 10.0 | 0.00 | 0.00 | 0.00 | 75 | 1011.3 |
| 20260903235709 | 87 | 157 | 7.0 | 11.0 | 0.00 | 0.00 | 0.00 | 74 | 1011.3 |
| 20260903235211 | 88 | 168 | 7.0 | 11.0 | 0.00 | 0.00 | 0.00 | 75 | 1011.2 |
| 20260903234717 | 88 | 190 | 6.0 | 11.0 | 0.00 | 0.00 | 0.00 | 74 | 1011.1 |
| 20260903234217 | 88 | 180 | 6.0 | 11.0 | 0.00 | 0.00 | 0.00 | 74 | 1011.2 |
| 20260903233723 | 88 | 181 | 6.0 | 11.0 | 0.00 | 0.00 | 0.00 | 74 | 1011.2 |
| 20260903233203 | 88 | 139 | 5.0 | 11.0 | 0.00 | 0.00 | 0.00 | 74 | 1011.1 |
| 20260903232645 | 88 | 157 | 5.0 | 10.0 | 0.00 | 0.00 | 0.00 | 74 | 1011.1 |
| 20260903232125 | 88 | 188 | 5.0 | 13.0 | 0.00 | 0.00 | 0.00 | 74 | 1011.0 |
| 20260903231618 | 88 | 185 | 5.0 | 13.0 | 0.00 | 0.00 | 0.00 | 75 | 1011.0 |
| 20260903231058 | 88 | 188 | 5.0 | 13.0 | 0.00 | 0.00 | 0.00 | 75 | 1011.1 |
| 20260903224653 | 88 | 125 | 9.0 | 16.0 | 0.00 | 0.00 | 0.00 | 75 | 1011.4 |
| 20260903224144 | 88 | 79 | 9.0 | 16.0 | 0.00 | 0.00 | 0.00 | 75 | 1011.4 |
| 20260903223023 | 89 | 94 | 12.0 | 16.0 | 0.00 | 0.00 | 0.00 | 75 | 1011.4 |
| 20260903222526 | 89 | 82 | 13.0 | 16.0 | 0.00 | 0.00 | 0.00 | 75 | 1011.4 |
| 20260903222025 | 89 | 84 | 13.0 | 16.0 | 0.00 | 0.00 | 0.00 | 74 | 1011.4 |
| 20260903221513 | 89 | 105 | 13.0 | 16.0 | 0.00 | 0.00 | 0.00 | 74 | 1011.7 |
| 20260903220953 | 89 | 113 | 12.0 | 16.0 | 0.00 | 0.00 | 0.00 | 74 | 1011.6 |
| 20260903220456 | 89 | 116 | 12.0 | 16.0 | 0.00 | 0.00 | 0.00 | 75 | 1011.8 |
| 20260903215942 | 89 | 100 | 12.0 | 16.0 | 0.00 | 0.00 | 0.00 | 73 | 1011.8 |
| 20260903215438 | 89 | 121 | 12.0 | 16.0 | 0.00 | 0.00 | 0.00 | 73 | 1012.1 |
| 20260903214925 | 90 | 77 | 11.0 | 16.0 | 0.00 | 0.00 | 0.00 | 72 | 1012.1 |
| 20260903214403 | 90 | 94 | 11.0 | 15.0 | 0.00 | 0.00 | 0.00 | 72 | 1012.3 |
| 20260903213842 | 90 | 107 | 10.0 | 15.0 | 0.00 | 0.00 | 0.00 | 72 | 1012.4 |
| 20260903213329 | 90 | 80 | 9.0 | 13.0 | 0.00 | 0.00 | 0.00 | 72 | 1012.4 |
| 20260903212832 | 90 | 117 | 9.0 | 13.0 | 0.00 | 0.00 | 0.00 | 71 | 1012.3 |
| 20260903211716 | 91 | 111 | 4.0 | 12.0 | 0.00 | 0.00 | 0.00 | 73 | 1012.1 |
| 20260903211220 | 91 | 107 | 4.0 | 14.0 | 0.00 | 0.00 | 0.00 | 72 | 1012.1 |
| 20260903210056 | 90 | 77 | 9.0 | 14.0 | 0.00 | 0.00 | 0.00 | 73 | 1012.2 |
| 20260903205553 | 90 | 96 | 8.0 | 14.0 | 0.00 | 0.00 | 0.00 | 73 | 1012.2 |
| 20260903204424 | 90 | 98 | 10.0 | 16.0 | 0.00 | 0.00 | 0.00 | 74 | 1012.2 |
| 20260903203914 | 89 | 87 | 11.0 | 17.0 | 0.00 | 0.00 | 0.00 | 74 | 1012.2 |
| 20260903203406 | 90 | 87 | 11.0 | 17.0 | 0.00 | 0.00 | 0.00 | 75 | 1012.3 |
| 20260903202909 | 89 | 78 | 12.0 | 17.0 | 0.00 | 0.00 | 0.00 | 75 | 1012.2 |
| 20260903202401 | 89 | 76 | 13.0 | 17.0 | 0.00 | 0.00 | 0.00 | 75 | 1012.3 |
| 20260903201840 | 89 | 94 | 12.0 | 16.0 | 0.00 | 0.00 | 0.00 | 76 | 1012.2 |
| 20260903201340 | 89 | 103 | 11.0 | 14.0 | 0.00 | 0.00 | 0.00 | 75 | 1012.2 |
| 20260903200843 | 89 | 95 | 10.0 | 14.0 | 0.00 | 0.00 | 0.00 | 75 | 1012.4 |
| 20260903195714 | 89 | 97 | 8.0 | 13.0 | 0.00 | 0.00 | 0.00 | 75 | 1012.6 |
| 20260903194543 | 89 | 91 | 10.0 | 13.0 | 0.00 | 0.00 | 0.00 | 74 | 1012.5 |
| 20260903194021 | 90 | 94 | 10.0 | 15.0 | 0.00 | 0.00 | 0.00 | 74 | 1012.3 |
| 20260903193518 | 90 | 89 | 10.0 | 15.0 | 0.00 | 0.00 | 0.00 | 73 | 1012.5 |
| 20260903192957 | 90 | 87 | 10.0 | 15.0 | 0.00 | 0.00 | 0.00 | 71 | 1012.4 |
| 20260903192442 | 91 | 82 | 9.0 | 15.0 | 0.00 | 0.00 | 0.00 | 70 | 1012.4 |
| 20260903191942 | 93 | 91 | 6.0 | 13.0 | 0.00 | 0.00 | 0.00 | 68 | 1012.4 |
| 20260903191435 | 93 | 140 | 4.0 | 9.0 | 0.00 | 0.00 | 0.00 | 64 | 1012.5 |
| 20260903190932 | 94 | 117 | 2.0 | 8.0 | 0.00 | 0.00 | 0.00 | 64 | 1012.7 |
| 20260903190427 | 94 | 55 | 1.0 | 4.0 | 0.00 | 0.00 | 0.00 | 64 | 1012.7 |
| 20260903185913 | 94 | 103 | 2.0 | 5.0 | 0.00 | 0.00 | 0.00 | 65 | 1012.6 |
| 20260903185415 | 93 | 161 | 2.0 | 5.0 | 0.00 | 0.00 | 0.00 | 65 | 1012.8 |
| 20260903184910 | 93 | 152 | 3.0 | 5.0 | 0.00 | 0.00 | 0.00 | 65 | 1013.0 |
| 20260903184406 | 93 | 161 | 3.0 | 5.0 | 0.00 | 0.00 | 0.00 | 66 | 1012.8 |
| 20260903183848 | 93 | 155 | 2.0 | 5.0 | 0.00 | 0.00 | 0.00 | 66 | 1013.0 |
| 20260903183348 | 92 | 179 | 2.0 | 5.0 | 0.00 | 0.00 | 0.00 | 68 | 1013.2 |
| 20260903182844 | 92 | 200 | 3.0 | 5.0 | 0.00 | 0.00 | 0.00 | 67 | 1013.2 |
| 20260903182337 | 92 | 207 | 3.0 | 5.0 | 0.00 | 0.00 | 0.00 | 67 | 1013.2 |
| 20260903180542 | 92 | 168 | 3.0 | 5.0 | 0.00 | 0.00 | 0.00 | 66 | 1013.2 |
| 20260903180036 | 93 | 169 | 3.0 | 5.0 | 0.00 | 0.00 | 0.00 | 65 | 1013.5 |
| 20260903175540 | 93 | 190 | 3.0 | 5.0 | 0.00 | 0.00 | 0.00 | 65 | 1013.5 |
| 20260903175046 | 93 | 175 | 3.0 | 5.0 | 0.00 | 0.00 | 0.00 | 65 | 1013.5 |
| 20260903174533 | 93 | 171 | 3.0 | 5.0 | 0.00 | 0.00 | 0.00 | 65 | 1013.4 |
| 20260903174013 | 93 | 194 | 3.0 | 6.0 | 0.00 | 0.00 | 0.00 | 64 | 1013.3 |
| 20260903173510 | 93 | 190 | 3.0 | 6.0 | 0.00 | 0.00 | 0.00 | 65 | 1013.5 |
| 20260903172350 | 93 | 202 | 2.0 | 6.0 | 0.00 | 0.00 | 0.00 | 65 | 1013.7 |
| 20260903171852 | 93 | 189 | 2.0 | 5.0 | 0.00 | 0.00 | 0.00 | 65 | 1013.7 |
| 20260903171343 | 93 | 200 | 2.0 | 5.0 | 0.00 | 0.00 | 0.00 | 66 | 1014.0 |
| 20260903170832 | 93 | 173 | 3.0 | 5.0 | 0.00 | 0.00 | 0.00 | 65 | 1014.0 |
| 20260903170322 | 93 | 177 | 3.0 | 5.0 | 0.00 | 0.00 | 0.00 | 66 | 1014.0 |
| 20260903165812 | 93 | 179 | 3.0 | 4.0 | 0.00 | 0.00 | 0.00 | 65 | 1013.9 |
| 20260903165317 | 93 | 202 | 3.0 | 5.0 | 0.00 | 0.00 | 0.00 | 65 | 1013.7 |
| 20260903164812 | 94 | 212 | 3.0 | 5.0 | 0.00 | 0.00 | 0.00 | 63 | 1013.8 |
| 20260903164319 | 94 | 209 | 3.0 | 6.0 | 0.00 | 0.00 | 0.00 | 64 | 1013.8 |
| 20260903163802 | 94 | 193 | 3.0 | 6.0 | 0.00 | 0.00 | 0.00 | 65 | 1013.8 |
| 20260903163245 | 94 | 222 | 3.0 | 6.0 | 0.00 | 0.00 | 0.00 | 66 | 1013.7 |
| 20260903162737 | 93 | 191 | 3.0 | 6.0 | 0.00 | 0.00 | 0.00 | 67 | 1013.8 |
| 20260903162225 | 93 | 199 | 3.0 | 5.0 | 0.00 | 0.00 | 0.00 | 68 | 1013.7 |
| 20260903161722 | 92 | 182 | 3.0 | 7.0 | 0.00 | 0.00 | 0.00 | 69 | 1013.5 |
| 20260903161220 | 92 | 209 | 3.0 | 7.0 | 0.00 | 0.00 | 0.00 | 69 | 1013.5 |
| 20260903160722 | 92 | 166 | 3.0 | 7.0 | 0.00 | 0.00 | 0.00 | 69 | 1013.5 |
| 20260903160215 | 92 | 198 | 3.0 | 7.0 | 0.00 | 0.00 | 0.00 | 67 | 1013.4 |
| 20260903155708 | 92 | 223 | 3.0 | 6.0 | 0.00 | 0.00 | 0.00 | 68 | 1013.4 |
| 20260903155151 | 92 | 210 | 3.0 | 6.0 | 0.00 | 0.00 | 0.00 | 67 | 1013.5 |
| 20260903154635 | 92 | 222 | 3.0 | 6.0 | 0.00 | 0.00 | 0.00 | 68 | 1013.6 |
| 20260903154139 | 92 | 234 | 3.0 | 6.0 | 0.00 | 0.00 | 0.00 | 69 | 1013.6 |
| 20260903153617 | 91 | 213 | 3.0 | 8.0 | 0.00 | 0.00 | 0.00 | 70 | 1013.7 |
| 20260903153113 | 91 | 221 | 3.0 | 8.0 | 0.00 | 0.00 | 0.00 | 70 | 1013.7 |
| 20260903152554 | 90 | 233 | 3.0 | 8.0 | 0.00 | 0.00 | 0.00 | 71 | 1013.6 |
| 20260903151415 | 90 | 235 | 3.0 | 7.0 | 0.00 | 0.00 | 0.00 | 71 | 1013.5 |
| 20260903150909 | 89 | 204 | 3.0 | 6.0 | 0.00 | 0.00 | 0.00 | 72 | 1013.5 |
| 20260903144448 | 89 | 205 | 3.0 | 10.0 | 0.00 | 0.00 | 0.00 | 73 | 1013.3 |
| 20260903143944 | 88 | 209 | 3.0 | 10.0 | 0.00 | 0.00 | 0.00 | 72 | 1013.3 |
| 20260903142835 | 88 | 225 | 4.0 | 10.0 | 0.00 | 0.00 | 0.00 | 73 | 1013.5 |
| 20260903142332 | 88 | 214 | 4.0 | 8.0 | 0.00 | 0.00 | 0.00 | 73 | 1013.5 |
| 20260903141815 | 88 | 236 | 2.0 | 8.0 | 0.00 | 0.00 | 0.00 | 74 | 1013.6 |
| 20260903141320 | 88 | 246 | 1.0 | 3.0 | 0.00 | 0.00 | 0.00 | 74 | 1013.5 |
| 20260903140809 | 88 | 248 | 1.0 | 3.0 | 0.00 | 0.00 | 0.00 | 74 | 1013.6 |
| 20260903140304 | 88 | 225 | 1.0 | 3.0 | 0.00 | 0.00 | 0.00 | 74 | 1013.7 |
| 20260903135107 | 88 | 281 | 2.0 | 6.0 | 0.00 | 0.00 | 0.00 | 74 | 1013.6 |
| 20260903134552 | 88 | 231 | 3.0 | 6.0 | 0.00 | 0.00 | 0.00 | 74 | 1013.5 |
| 20260903134041 | 88 | 233 | 4.0 | 10.0 | 0.00 | 0.00 | 0.00 | 73 | 1013.5 |
| 20260903133542 | 88 | 237 | 5.0 | 10.0 | 0.00 | 0.00 | 0.00 | 74 | 1013.5 |
| 20260903133043 | 88 | 246 | 5.0 | 10.0 | 0.00 | 0.00 | 0.00 | 74 | 1013.4 |
| 20260903132524 | 88 | 226 | 4.0 | 9.0 | 0.00 | 0.00 | 0.00 | 74 | 1013.4 |
| 20260903131359 | 88 | 237 | 3.0 | 11.0 | 0.00 | 0.00 | 0.00 | 74 | 1013.5 |
| 20260903130228 | 88 | 265 | 4.0 | 11.0 | 0.00 | 0.00 | 0.00 | 74 | 1013.4 |
| 20260903125714 | 88 | 261 | 6.0 | 11.0 | 0.00 | 0.00 | 0.00 | 75 | 1013.3 |
| 20260903125151 | 88 | 219 | 6.0 | 9.0 | 0.00 | 0.00 | 0.00 | 74 | 1013.2 |
| 20260903124530 | 88 | 211 | 5.0 | 14.0 | 0.00 | 0.00 | 0.00 | 74 | 1013.2 |
| 20260903123409 | 87 | 213 | 7.0 | 14.0 | 0.00 | 0.00 | 0.00 | 73 | 1013.2 |
| 20260903122906 | 88 | 206 | 7.0 | 14.0 | 0.00 | 0.00 | 0.00 | 76 | 1013.0 |
| 20260903122405 | 87 | 213 | 5.0 | 12.0 | 0.00 | 0.00 | 0.00 | 76 | 1013.0 |
| 20260903121847 | 87 | 210 | 3.0 | 10.0 | 0.00 | 0.00 | 0.00 | 75 | 1013.1 |
| 20260903120709 | 86 | 269 | 2.0 | 5.0 | 0.00 | 0.00 | 0.00 | 72 | 1013.2 |
| 20260903120207 | 86 | 255 | 2.0 | 11.0 | 0.00 | 0.00 | 0.00 | 72 | 1013.1 |
| 20260903115703 | 86 | 246 | 3.0 | 11.0 | 0.00 | 0.00 | 0.00 | 71 | 1013.1 |
| 20260903115205 | 86 | 242 | 3.0 | 17.0 | 0.00 | 0.00 | 0.00 | 72 | 1013.0 |
| 20260903114645 | 87 | 275 | 5.0 | 17.0 | 0.00 | 0.00 | 0.00 | 73 | 1012.9 |
| 20260903113509 | 88 | 209 | 8.0 | 17.0 | 0.00 | 0.05 | 0.00 | 75 | 1012.7 |
| 20260903113008 | 88 | 205 | 8.0 | 15.0 | 0.00 | 0.07 | 0.00 | 75 | 1012.7 |
| 20260903112507 | 88 | 194 | 8.0 | 14.0 | 0.00 | 0.07 | 0.00 | 75 | 1012.6 |
| 20260903111953 | 88 | 204 | 9.0 | 14.0 | 0.00 | 0.07 | 0.00 | 75 | 1012.7 |
| 20260903110818 | 88 | 196 | 10.0 | 14.0 | 0.00 | 0.07 | 0.00 | 74 | 1012.5 |
| 20260903110304 | 87 | 178 | 8.0 | 12.0 | 0.00 | 0.07 | 0.00 | 75 | 1012.5 |
| 20260903105749 | 88 | 208 | 7.0 | 11.0 | 0.00 | 0.07 | 0.00 | 76 | 1012.5 |
| 20260903105238 | 88 | 201 | 7.0 | 12.0 | 0.00 | 0.07 | 0.00 | 77 | 1012.5 |
| 20260903104746 | 88 | 185 | 7.0 | 12.0 | 0.00 | 0.07 | 0.00 | 77 | 1012.4 |
| 20260903104244 | 88 | 188 | 7.0 | 14.0 | 0.00 | 0.07 | 0.00 | 76 | 1012.4 |
| 20260903103740 | 88 | 217 | 8.0 | 14.0 | 0.00 | 0.07 | 0.00 | 76 | 1012.4 |
| 20260903103232 | 88 | 223 | 8.0 | 14.0 | 0.00 | 0.07 | 0.00 | 76 | 1012.4 |
| 20260903102739 | 88 | 197 | 8.0 | 14.0 | 0.00 | 0.07 | 0.00 | 76 | 1012.4 |
| 20260903102238 | 88 | 176 | 8.0 | 14.0 | 0.00 | 0.07 | 0.00 | 76 | 1012.4 |
| 20260903101717 | 88 | 2 | 8.0 | 14.0 | 0.00 | 0.07 | 0.00 | 76 | 1012.4 |
| 20260903101216 | 88 | 207 | 8.0 | 13.0 | 0.00 | 0.07 | 0.00 | 76 | 1012.3 |
| 20260903100702 | 88 | 192 | 8.0 | 15.0 | 0.00 | 0.07 | 0.00 | 76 | 1012.3 |
| 20260903100143 | 88 | 180 | 9.0 | 15.0 | 0.00 | 0.07 | 0.00 | 75 | 1012.3 |
| 20260903095646 | 88 | 195 | 9.0 | 15.0 | 0.00 | 0.07 | 0.00 | 75 | 1012.3 |
| 20260903095143 | 88 | 198 | 9.0 | 15.0 | 0.00 | 0.07 | 0.00 | 75 | 1012.2 |
| 20260903094637 | 88 | 204 | 9.0 | 16.0 | 0.00 | 0.07 | 0.00 | 75 | 1012.3 |
| 20260903094129 | 88 | 201 | 9.0 | 16.0 | 0.00 | 0.07 | 0.00 | 75 | 1012.3 |
| 20260903093612 | 87 | 206 | 10.0 | 16.0 | 0.00 | 0.07 | 0.00 | 75 | 1012.3 |
| 20260903093113 | 87 | 170 | 9.0 | 14.0 | 0.00 | 0.07 | 0.00 | 76 | 1012.3 |
| 20260903091945 | 88 | 214 | 10.0 | 14.0 | 0.00 | 0.07 | 0.00 | 77 | 1012.3 |
| 20260903091449 | 88 | 2 | 10.0 | 15.0 | 0.00 | 0.07 | 0.00 | 77 | 1012.2 |
| 20260903090937 | 88 | 174 | 11.0 | 15.0 | 0.00 | 0.07 | 0.00 | 77 | 1012.2 |
| 20260903085806 | 88 | 195 | 12.0 | 17.0 | 0.00 | 0.07 | 0.00 | 77 | 1012.3 |
| 20260903085313 | 88 | 198 | 12.0 | 17.0 | 0.00 | 0.07 | 0.00 | 77 | 1012.3 |
| 20260903084159 | 88 | 193 | 11.0 | 17.0 | 0.00 | 0.07 | 0.00 | 78 | 1012.2 |
| 20260903083655 | 88 | 209 | 11.0 | 17.0 | 0.00 | 0.07 | 0.00 | 77 | 1012.3 |
| 20260903083150 | 88 | 173 | 11.0 | 17.0 | 0.00 | 0.07 | 0.00 | 77 | 1012.3 |
| 20260903082630 | 88 | 2 | 12.0 | 17.0 | 0.00 | 0.07 | 0.00 | 77 | 1012.4 |
| 20260903082131 | 88 | 189 | 12.0 | 17.0 | 0.00 | 0.07 | 0.00 | 77 | 1012.3 |
| 20260903081633 | 88 | 188 | 12.0 | 16.0 | 0.00 | 0.07 | 0.00 | 77 | 1012.3 |
| 20260903081113 | 88 | 189 | 12.0 | 16.0 | 0.00 | 0.07 | 0.00 | 77 | 1012.3 |
| 20260903080612 | 88 | 201 | 12.0 | 16.0 | 0.00 | 0.07 | 0.00 | 77 | 1012.3 |
| 20260903080056 | 88 | 193 | 12.0 | 16.0 | 0.00 | 0.07 | 0.00 | 77 | 1012.2 |
| 20260903075537 | 88 | 185 | 11.0 | 16.0 | 0.00 | 0.07 | 0.00 | 77 | 1012.3 |
| 20260903075028 | 88 | 186 | 12.0 | 18.0 | 0.00 | 0.07 | 0.00 | 77 | 1012.3 |
| 20260903074525 | 88 | 2 | 12.0 | 18.0 | 0.00 | 0.07 | 0.00 | 77 | 1012.2 |
| 20260903074003 | 88 | 184 | 12.0 | 18.0 | 0.00 | 0.07 | 0.00 | 77 | 1012.2 |
| 20260903073443 | 88 | 205 | 12.0 | 18.0 | 0.00 | 0.07 | 0.00 | 77 | 1012.2 |
| 20260903072944 | 88 | 175 | 12.0 | 16.0 | 0.00 | 0.07 | 0.00 | 76 | 1012.2 |
| 20260903072440 | 88 | 202 | 12.0 | 16.0 | 0.00 | 0.07 | 0.00 | 76 | 1012.2 |
| 20260903071919 | 88 | 2 | 11.0 | 16.0 | 0.00 | 0.07 | 0.00 | 76 | 1012.3 |
| 20260903071415 | 88 | 193 | 11.0 | 16.0 | 0.00 | 0.07 | 0.00 | 76 | 1012.4 |
| 20260903070246 | 88 | 2 | 11.0 | 16.0 | 0.00 | 0.07 | 0.00 | 76 | 1012.6 |
| 20260903064445 | 88 | 180 | 11.0 | 16.0 | 0.00 | 0.07 | 0.00 | 76 | 1012.7 |
| 20260903063308 | 88 | 188 | 10.0 | 16.0 | 0.00 | 0.07 | 0.00 | 76 | 1012.7 |
| 20260903062805 | 88 | 194 | 11.0 | 16.0 | 0.00 | 0.07 | 0.00 | 76 | 1012.9 |
| 20260903061615 | 88 | 196 | 11.0 | 16.0 | 0.00 | 0.07 | 0.00 | 76 | 1012.9 |
| 20260903060510 | 88 | 194 | 12.0 | 16.0 | 0.00 | 0.07 | 0.00 | 76 | 1013.3 |
| 20260903055952 | 88 | 190 | 12.0 | 18.0 | 0.00 | 0.07 | 0.00 | 77 | 1013.4 |
| 20260903055433 | 88 | 188 | 12.0 | 18.0 | 0.00 | 0.07 | 0.00 | 77 | 1013.5 |
| 20260903054915 | 88 | 181 | 13.0 | 18.0 | 0.00 | 0.07 | 0.00 | 78 | 1013.4 |
| 20260903054418 | 88 | 197 | 13.0 | 18.0 | 0.00 | 0.07 | 0.00 | 77 | 1013.4 |
| 20260903053921 | 88 | 198 | 13.0 | 17.0 | 0.00 | 0.07 | 0.00 | 77 | 1013.3 |
| 20260903053419 | 88 | 180 | 13.0 | 18.0 | 0.00 | 0.07 | 0.00 | 77 | 1013.3 |
| 20260903052906 | 88 | 195 | 13.0 | 18.0 | 0.00 | 0.07 | 0.00 | 77 | 1013.4 |
| 20260903052402 | 88 | 194 | 14.0 | 18.0 | 0.00 | 0.07 | 0.00 | 76 | 1013.3 |
| 20260903050018 | 88 | 205 | 14.0 | 19.0 | 0.00 | 0.07 | 0.00 | 77 | 1013.1 |
| 20260903045522 | 88 | 182 | 14.0 | 19.0 | 0.00 | 0.07 | 0.07 | 77 | 1013.2 |